Location: El Escondido
(32.5691°N, 116.4250°W)
Time: 02:24:37
(UTC+00:00)

ACS3 Solar Sail - Visible Passes

Search period start: 21 June 2024 00:00
Search period end: 01 July 2024 00:00
Orbit: 992 x 1024 km, 97.4° (Epoch: 20 June)

Date Brightness Start Highest point End Pass type
(mag) Time Alt. Az. Time Alt. Az. Time Alt. Az.
21 Jun 5.3 04:52:46 34° ESE 04:54:58 46° ENE 05:00:51 10° N visible
21 Jun 6.5 06:38:07 21° WSW 06:39:12 22° W 06:43:52 10° NW visible
22 Jun 6.8 03:44:10 10° E 03:46:03 11° ENE 03:47:56 10° NE visible
22 Jun 4.7 05:27:34 52° S 05:29:16 88° W 05:35:31 10° NNW visible
23 Jun 6.1 04:17:02 17° ESE 04:19:59 24° ENE 04:24:47 10° NNE visible
23 Jun 5.6 06:02:22 38° SW 06:03:43 44° W 06:09:37 10° NNW visible
24 Jun 5.2 04:51:49 34° ESE 04:54:06 48° ENE 05:00:01 10° N visible
24 Jun 6.5 06:37:10 20° WSW 06:38:22 21° W 06:42:55 10° NW visible
25 Jun 6.7 03:43:00 10° E 03:45:10 12° ENE 03:47:19 10° NE visible
25 Jun 4.8 05:26:37 50° S 05:28:24 86° WSW 05:34:39 10° NNW visible
26 Jun 6.1 04:16:04 17° ESE 04:19:05 25° ENE 04:23:59 10° NNE visible
26 Jun 5.6 06:01:25 37° SW 06:02:52 42° W 06:08:43 10° NNW visible
27 Jun 5.2 04:50:52 33° SE 04:53:13 50° ENE 04:59:11 10° N visible
27 Jun 6.6 06:36:12 19° WSW 06:37:31 20° W 06:41:58 10° NW visible
28 Jun 6.7 03:41:53 10° E 03:44:16 12° ENE 03:46:39 10° NE visible
28 Jun 4.8 05:25:40 48° S 05:27:32 83° WSW 05:33:47 10° NNW visible
29 Jun 6.0 04:15:07 17° ESE 04:18:13 26° ENE 04:23:10 10° NNE visible
29 Jun 5.7 06:00:28 35° SW 06:02:01 40° W 06:07:50 10° NNW visible
30 Jun 5.1 04:49:56 34° SE 04:52:21 51° ENE 04:58:20 10° N visible
30 Jun 6.6 06:35:16 18° WSW 06:36:40 19° W 06:41:00 10° NW visible
